QPF
0.04 0.04 0.04 0.04 0.04 0.05 0.05 0.05 0.04 0.03 0.04 0.03 0.03 0.03 0.03 0.08 0.14 0.12 0.10 0.11 0.12 0.12 0.13 0.13 0.11 0.10 0.10 0.08 0.08 0.07 0.06 0.06 0.06 0.06 0.08 0.10 0.12 0.13
0.03 0.03 0.03 0.03 0.02 0.03 0.04 0.04 0.05 0.05 0.04 0.04 0.03 0.03 0.03 0.05 0.08 0.11 0.16 0.17 0.14 0.11 0.09 0.09 0.09 0.08 0.09 0.08 0.07 0.07 0.06 0.05 0.04 0.04 0.04 0.05 0.07 0.09
0.03 0.03 0.02 0.02 0.01 0.02 0.03 0.03 0.04 0.06 0.05 0.04 0.04 0.04 0.05 0.05 0.05 0.07 0.08 0.09 0.09 0.08 0.07 0.06 0.05 0.05 0.04 0.04 0.04 0.04 0.04 0.03 0.03 0.02 0.02 0.03 0.04 0.05
0.02 0.02 0.02 0.03 0.02 0.02 0.02 0.02 0.02 0.04 0.04 0.04 0.04 0.04 0.05 0.04 0.06 0.07 0.06 0.05 0.05 0.07 0.07 0.07 0.07 0.07 0.08 0.06 0.06 0.04 0.03 0.04 0.03 0.03 0.02 0.02 0.02 0.03
0.02 0.02 0.03 0.04 0.02 0.01 0.01 0.01 0.02 0.03 0.03 0.03 0.02 0.03 0.03 0.04 0.06 0.07 0.06 0.04 0.04 0.04 0.05 0.05 0.05 0.05 0.08 0.10 0.08 0.05 0.04 0.04 0.04 0.03 0.02 0.02 0.02 0.02
0.03 0.03 0.02 0.03 0.02 0.02 0.01 0.01 0.01 0.03 0.03 0.03 0.02 0.02 0.02 0.03 0.05 0.06 0.06 0.05 0.04 0.03 0.03 0.03 0.03 0.03 0.04 0.06 0.06 0.06 0.05 0.03 0.03 0.03 0.03 0.02 0.02 0.02
0.02 0.02 0.02 0.03 0.03 0.03 0.01 0.01 0.01 0.02 0.03 0.02 0.02 0.02 0.02 0.03 0.03 0.04 0.05 0.05 0.03 0.02 0.02 0.01 0.01 0.02 0.02 0.03 0.03 0.04 0.05 0.04 0.03 0.03 0.03 0.02 0.02 0.02
0.03 0.03 0.04 0.05 0.04 0.03 0.02 0.01 0.01 0.02 0.03 0.02 0.02 0.02 0.02 0.02 0.02 0.03 0.04 0.07 0.05 0.02 0.02 0.02 0.02 0.02 0.02 0.02 0.03 0.02 0.03 0.03 0.02 0.02 0.02 0.03 0.04 0.04
0.03 0.04 0.05 0.04 0.04 0.02 0.01 0.01 0.02 0.03 0.04 0.03 0.02 0.01 0.01 0.01 0.01 0.02 0.03 0.04 0.06 0.05 0.03 0.02 0.01 0.02 0.02 0.02 0.03 0.02 0.02 0.02 0.02 0.03 0.03 0.03 0.04 0.05
0.04 0.06 0.06 0.05 0.03 0.02 0.02 0.02 0.03 0.03 0.03 0.03 0.03 0.01 0.01 0.01 0.01 0.02 0.03 0.04 0.05 0.05 0.04 0.03 0.01 0.01 0.02 0.01 0.02 0.02 0.03 0.04 0.04 0.04 0.05 0.06 0.06 0.05
0.04 0.05 0.05 0.05 0.04 0.03 0.03 0.03 0.03 0.04 0.03 0.03 0.02 0.02 0.02 0.01 0.01 0.01 0.03 0.04 0.04 0.05 0.04 0.03 0.03 0.03 0.02 0.01 0.02 0.03 0.04 0.05 0.05 0.06 0.07 0.08 0.09 0.07
0.05 0.05 0.05 0.05 0.05 0.05 0.04 0.03 0.02 0.02 0.02 0.02 0.01 0.02 0.02 0.01 0.00 0.00 0.01 0.03 0.03 0.04 0.04 0.04 0.04 0.03 0.03 0.02 0.02 0.02 0.03 0.04 0.05 0.05 0.06 0.08 0.08 0.07
0.05 0.05 0.05 0.05 0.04 0.03 0.02 0.01 0.01 0.01 0.01 0.01 0.01 0.02 0.02 0.01 0.00 0.00 0.00 0.01 0.03 0.05 0.06 0.06 0.03 0.02 0.02 0.02 0.01 0.02 0.03 0.03 0.03 0.03 0.03 0.04 0.04 0.04
0.03 0.04 0.04 0.05 0.03 0.03 0.02 0.01 0.01 0.01 0.01 0.01 0.01 0.01 0.02 0.01 0.01 0.00 0.01 0.02 0.04 0.06 0.05 0.04 0.02 0.02 0.01 0.01 0.01 0.02 0.02 0.03 0.04 0.04 0.04 0.04 0.03 0.04
0.02 0.03 0.04 0.04 0.04 0.03 0.03 0.02 0.01 0.01 0.01 0.01 0.01 0.01 0.01 0.01 0.01 0.01 0.02 0.03 0.03 0.02 0.02 0.02 0.02 0.03 0.02 0.01 0.01 0.02 0.02 0.03 0.03 0.04 0.04 0.03 0.03 0.03
0.01 0.01 0.02 0.03 0.05 0.04 0.03 0.02 0.01 0.01 0.01 0.01 0.01 0.01 0.01 0.01 0.01 0.02 0.02 0.02 0.02 0.02 0.01 0.02 0.03 0.03 0.03 0.03 0.02 0.03 0.03 0.03 0.02 0.02 0.04 0.04 0.04 0.03
0.02 0.01 0.01 0.01 0.03 0.04 0.03 0.03 0.02 0.02 0.01 0.01 0.02 0.02 0.02 0.01 0.02 0.03 0.03 0.05 0.05 0.04 0.02 0.02 0.03 0.04 0.05 0.07 0.05 0.04 0.04 0.03 0.04 0.04 0.04 0.03 0.02 0.02
0.02 0.02 0.02 0.02 0.02 0.02 0.03 0.04 0.03 0.03 0.02 0.02 0.02 0.02 0.02 0.01 0.02 0.03 0.05 0.09 0.09 0.06 0.04 0.03 0.04 0.05 0.06 0.07 0.08 0.07 0.06 0.05 0.07 0.08 0.07 0.06 0.03 0.02
0.02 0.01 0.01 0.02 0.02 0.02 0.02 0.03 0.03 0.04 0.04 0.03 0.02 0.02 0.02 0.02 0.03 0.04 0.05 0.08 0.07 0.07 0.06 0.04 0.05 0.06 0.05 0.06 0.07 0.06 0.06 0.05 0.05 0.06 0.07 0.07 0.06 0.06
0.02 0.02 0.02 0.02 0.02 0.02 0.02 0.03 0.03 0.04 0.05 0.04 0.02 0.02 0.02 0.03 0.03 0.04 0.06 0.07 0.08 0.09 0.07 0.06 0.06 0.06 0.05 0.06 0.06 0.04 0.03 0.04 0.05 0.05 0.04 0.05 0.05 0.05
0.04 0.04 0.03 0.03 0.02 0.02 0.02 0.03 0.03 0.03 0.04 0.05 0.04 0.03 0.03 0.04 0.05 0.05 0.05 0.06 0.07 0.08 0.06 0.06 0.07 0.07 0.06 0.05 0.04 0.03 0.02 0.03 0.03 0.04 0.04 0.05 0.04 0.03
0.03 0.04 0.04 0.04 0.03 0.03 0.03 0.02 0.03 0.04 0.05 0.04 0.04 0.04 0.04 0.05 0.05 0.05 0.05 0.05 0.05 0.05 0.05 0.04 0.05 0.05 0.05 0.04 0.03 0.03 0.03 0.03 0.03 0.04 0.03 0.04 0.04 0.03
0.04 0.04 0.06 0.07 0.05 0.04 0.04 0.04 0.03 0.04 0.05 0.04 0.03 0.03 0.04 0.04 0.04 0.05 0.05 0.05 0.05 0.05 0.04 0.04 0.05 0.05 0.05 0.04 0.04 0.05 0.04 0.03 0.03 0.04 0.03 0.03 0.02 0.02
MSLP
1016.57 1016.64 1016.72 1016.78 1016.79 1016.74 1016.62 1016.43 1016.19 1015.91 1015.63 1015.35 1015.09 1014.85 1014.62 1014.41 1014.21 1014.04 1013.88 1013.76 1013.69 1013.68 1013.72 1013.81 1013.93 1014.05 1014.16 1014.24 1014.27 1014.26 1014.22 1014.17 1014.11 1014.07 1014.06 1014.06 1014.06 1014.06
1016.66 1016.69 1016.73 1016.76 1016.75 1016.70 1016.60 1016.44 1016.25 1016.04 1015.81 1015.58 1015.35 1015.13 1014.90 1014.67 1014.44 1014.22 1014.03 1013.88 1013.79 1013.76 1013.81 1013.92 1014.06 1014.22 1014.37 1014.48 1014.55 1014.58 1014.57 1014.53 1014.49 1014.45 1014.42 1014.40 1014.38 1014.35
1016.71 1016.71 1016.72 1016.72 1016.69 1016.64 1016.55 1016.44 1016.30 1016.14 1015.97 1015.80 1015.61 1015.41 1015.19 1014.95 1014.69 1014.44 1014.22 1014.03 1013.91 1013.86 1013.90 1014.00 1014.15 1014.33 1014.49 1014.64 1014.74 1014.79 1014.80 1014.79 1014.76 1014.73 1014.70 1014.67 1014.63 1014.57
1016.73 1016.70 1016.68 1016.66 1016.62 1016.57 1016.51 1016.42 1016.33 1016.23 1016.12 1016.00 1015.86 1015.69 1015.48 1015.24 1014.98 1014.71 1014.46 1014.24 1014.08 1014.00 1014.00 1014.07 1014.20 1014.36 1014.52 1014.66 1014.77 1014.84 1014.87 1014.88 1014.87 1014.85 1014.83 1014.81 1014.76 1014.68
1016.69 1016.65 1016.61 1016.58 1016.54 1016.49 1016.44 1016.39 1016.33 1016.28 1016.22 1016.15 1016.05 1015.92 1015.74 1015.52 1015.27 1015.00 1014.72 1014.48 1014.28 1014.16 1014.11 1014.12 1014.20 1014.31 1014.43 1014.54 1014.63 1014.70 1014.74 1014.76 1014.77 1014.78 1014.78 1014.76 1014.72 1014.65
1016.57 1016.52 1016.48 1016.44 1016.40 1016.36 1016.32 1016.28 1016.25 1016.23 1016.21 1016.18 1016.12 1016.03 1015.90 1015.71 1015.49 1015.23 1014.96 1014.70 1014.48 1014.30 1014.19 1014.13 1014.13 1014.16 1014.22 1014.28 1014.33 1014.38 1014.42 1014.45 1014.48 1014.51 1014.54 1014.55 1014.54 1014.48
1016.35 1016.30 1016.25 1016.21 1016.16 1016.12 1016.09 1016.06 1016.04 1016.03 1016.03 1016.03 1016.01 1015.96 1015.88 1015.74 1015.56 1015.34 1015.09 1014.83 1014.59 1014.38 1014.20 1014.07 1013.99 1013.93 1013.91 1013.90 1013.91 1013.92 1013.95 1013.99 1014.04 1014.10 1014.16 1014.21 1014.23 1014.20
1016.00 1015.95 1015.90 1015.86 1015.81 1015.76 1015.72 1015.68 1015.66 1015.65 1015.65 1015.66 1015.66 1015.66 1015.62 1015.54 1015.41 1015.24 1015.03 1014.80 1014.56 1014.32 1014.11 1013.91 1013.75 1013.62 1013.52 1013.44 1013.40 1013.38 1013.40 1013.44 1013.51 1013.60 1013.70 1013.79 1013.85 1013.86
1015.53 1015.48 1015.43 1015.39 1015.34 1015.28 1015.22 1015.16 1015.11 1015.07 1015.06 1015.07 1015.08 1015.10 1015.10 1015.08 1015.02 1014.91 1014.76 1014.57 1014.35 1014.12 1013.88 1013.64 1013.43 1013.24 1013.08 1012.96 1012.87 1012.83 1012.84 1012.89 1012.97 1013.09 1013.22 1013.34 1013.44 1013.49
1014.97 1014.92 1014.88 1014.83 1014.77 1014.70 1014.61 1014.52 1014.43 1014.36 1014.31 1014.30 1014.31 1014.34 1014.37 1014.40 1014.39 1014.35 1014.26 1014.12 1013.95 1013.74 1013.51 1013.27 1013.04 1012.82 1012.63 1012.48 1012.38 1012.33 1012.33 1012.39 1012.49 1012.62 1012.76 1012.91 1013.04 1013.12
1014.36 1014.33 1014.30 1014.25 1014.19 1014.09 1013.97 1013.84 1013.71 1013.59 1013.51 1013.46 1013.45 1013.47 1013.52 1013.57 1013.61 1013.62 1013.59 1013.52 1013.39 1013.23 1013.03 1012.81 1012.59 1012.39 1012.20 1012.06 1011.96 1011.91 1011.92 1011.98 1012.08 1012.21 1012.36 1012.51 1012.65 1012.75
1013.79 1013.77 1013.75 1013.71 1013.64 1013.53 1013.39 1013.22 1013.04 1012.88 1012.74 1012.65 1012.61 1012.62 1012.66 1012.72 1012.78 1012.83 1012.84 1012.82 1012.74 1012.63 1012.48 1012.31 1012.13 1011.96 1011.80 1011.69 1011.61 1011.57 1011.59 1011.64 1011.74 1011.86 1012.00 1012.13 1012.26 1012.36
1013.30 1013.30 1013.30 1013.27 1013.20 1013.07 1012.91 1012.71 1012.49 1012.29 1012.11 1011.97 1011.89 1011.86 1011.88 1011.94 1012.00 1012.06 1012.10 1012.11 1012.08 1012.01 1011.91 1011.79 1011.66 1011.54 1011.43 1011.36 1011.31 1011.30 1011.32 1011.37 1011.44 1011.54 1011.64 1011.75 1011.85 1011.94
1012.92 1012.95 1012.96 1012.94 1012.87 1012.74 1012.56 1012.34 1012.10 1011.86 1011.64 1011.47 1011.35 1011.29 1011.27 1011.30 1011.34 1011.39 1011.43 1011.45 1011.44 1011.40 1011.34 1011.27 1011.20 1011.13 1011.07 1011.03 1011.02 1011.03 1011.05 1011.09 1011.14 1011.20 1011.26 1011.33 1011.40 1011.47
1012.66 1012.70 1012.72 1012.71 1012.63 1012.50 1012.32 1012.09 1011.83 1011.58 1011.34 1011.14 1010.99 1010.89 1010.84 1010.83 1010.84 1010.86 1010.88 1010.88 1010.87 1010.84 1010.81 1010.77 1010.73 1010.70 1010.69 1010.69 1010.70 1010.72 1010.74 1010.77 1010.79 1010.81 1010.83 1010.85 1010.89 1010.94
1012.44 1012.50 1012.52 1012.50 1012.43 1012.30 1012.12 1011.89 1011.64 1011.39 1011.15 1010.94 1010.77 1010.65 1010.57 1010.52 1010.49 1010.46 1010.44 1010.41 1010.38 1010.34 1010.30 1010.27 1010.25 1010.25 1010.26 1010.29 1010.31 1010.34 1010.36 1010.37 1010.37 1010.35 1010.34 1010.33 1010.34 1010.37
1012.21 1012.26 1012.28 1012.26 1012.19 1012.06 1011.89 1011.68 1011.45 1011.22 1011.00 1010.80 1010.63 1010.50 1010.40 1010.31 1010.24 1010.17 1010.10 1010.03 1009.95 1009.88 1009.83 1009.78 1009.76 1009.77 1009.79 1009.82 1009.85 1009.88 1009.90 1009.90 1009.88 1009.85 1009.81 1009.79 1009.78 1009.81
1011.88 1011.91 1011.92 1011.89 1011.82 1011.71 1011.56 1011.38 1011.18 1010.99 1010.80 1010.64 1010.49 1010.37 1010.26 1010.16 1010.05 1009.95 1009.83 1009.71 1009.59 1009.47 1009.38 1009.31 1009.27 1009.26 1009.27 1009.30 1009.34 1009.36 1009.38 1009.37 1009.35 1009.31 1009.28 1009.25 1009.25 1009.29
1011.39 1011.41 1011.41 1011.38 1011.31 1011.21 1011.09 1010.95 1010.81 1010.67 1010.53 1010.41 1010.31 1010.21 1010.11 1010.01 1009.89 1009.75 1009.59 1009.43 1009.26 1009.11 1008.97 1008.87 1008.79 1008.76 1008.75 1008.77 1008.80 1008.82 1008.84 1008.83 1008.82 1008.79 1008.77 1008.75 1008.77 1008.83
1010.76 1010.76 1010.75 1010.72 1010.67 1010.60 1010.52 1010.43 1010.34 1010.26 1010.19 1010.13 1010.07 1010.01 1009.94 1009.84 1009.72 1009.57 1009.39 1009.19 1008.98 1008.79 1008.61 1008.47 1008.36 1008.30 1008.27 1008.26 1008.28 1008.30 1008.31 1008.32 1008.32 1008.31 1008.30 1008.32 1008.35 1008.43
1010.02 1010.02 1010.02 1010.00 1009.98 1009.94 1009.91 1009.87 1009.84 1009.83 1009.82 1009.82 1009.81 1009.79 1009.75 1009.67 1009.55 1009.39 1009.20 1008.98 1008.74 1008.52 1008.30 1008.13 1007.99 1007.89 1007.84 1007.81 1007.81 1007.82 1007.84 1007.85 1007.86 1007.87 1007.89 1007.92 1007.98 1008.07
1009.29 1009.30 1009.31 1009.32 1009.32 1009.33 1009.34 1009.36 1009.39 1009.43 1009.48 1009.53 1009.57 1009.59 1009.57 1009.50 1009.39 1009.23 1009.03 1008.79 1008.54 1008.29 1008.05 1007.84 1007.68 1007.55 1007.47 1007.42 1007.40 1007.40 1007.41 1007.43 1007.45 1007.47 1007.50 1007.54 1007.61 1007.71
1008.68 1008.71 1008.74 1008.78 1008.82 1008.86 1008.92 1008.98 1009.05 1009.14 1009.23 1009.31 1009.38 1009.41 1009.41 1009.35 1009.24 1009.08 1008.87 1008.62 1008.35 1008.08 1007.82 1007.60 1007.40 1007.25 1007.14 1007.07 1007.03 1007.02 1007.01 1007.02 1007.04 1007.06 1007.09 1007.14 1007.21 1007.30
Thickness
5725 5724 5723 5723 5722 5722 5720 5718 5713 5707 5706 5710 5712 5715 5715 5715 5714 5714 5713 5713 5714 5713 5713 5712 5711 5709 5708 5707 5706 5705 5704 5703 5702 5700 5699 5698 5697 5697
5720 5719 5718 5718 5717 5716 5715 5714 5712 5708 5704 5706 5707 5709 5710 5710 5709 5709 5708 5708 5708 5708 5707 5707 5706 5704 5703 5702 5702 5701 5700 5699 5698 5697 5696 5695 5695 5694
5714 5713 5712 5712 5711 5710 5709 5708 5706 5704 5700 5700 5702 5703 5703 5702 5703 5703 5703 5702 5702 5703 5702 5701 5700 5699 5698 5698 5697 5696 5696 5695 5694 5693 5693 5692 5692 5691
5708 5707 5707 5707 5705 5704 5703 5701 5700 5699 5696 5693 5693 5694 5695 5695 5696 5696 5696 5696 5696 5696 5695 5695 5694 5694 5693 5693 5692 5692 5691 5690 5690 5689 5689 5688 5688 5687
5703 5702 5702 5701 5699 5698 5697 5695 5694 5694 5691 5689 5687 5688 5688 5688 5688 5688 5689 5689 5690 5690 5689 5689 5688 5687 5687 5687 5686 5686 5686 5686 5685 5685 5684 5684 5683 5683
5698 5697 5697 5697 5695 5693 5692 5690 5688 5686 5685 5683 5681 5680 5680 5681 5681 5679 5679 5681 5682 5683 5683 5682 5681 5681 5681 5681 5681 5681 5681 5681 5680 5680 5679 5679 5679 5679
5692 5693 5693 5694 5693 5691 5689 5685 5683 5680 5678 5676 5674 5673 5673 5672 5672 5673 5672 5672 5673 5675 5675 5675 5675 5675 5675 5675 5675 5675 5676 5676 5675 5675 5675 5675 5675 5674
5687 5687 5688 5688 5687 5686 5685 5683 5681 5677 5674 5671 5669 5668 5668 5668 5668 5668 5665 5664 5664 5668 5668 5667 5668 5667 5668 5668 5669 5669 5670 5670 5671 5670 5670 5670 5670 5669
5683 5682 5683 5683 5681 5679 5678 5678 5676 5675 5674 5671 5667 5665 5664 5665 5663 5661 5660 5660 5660 5662 5661 5659 5660 5660 5662 5663 5663 5663 5664 5665 5665 5665 5665 5664 5664 5664
5680 5679 5677 5677 5676 5674 5672 5670 5669 5669 5669 5667 5666 5665 5664 5663 5661 5659 5657 5656 5656 5656 5656 5652 5653 5654 5657 5658 5658 5658 5658 5658 5659 5659 5659 5659 5658 5658
5677 5676 5674 5672 5672 5670 5667 5664 5662 5663 5664 5663 5662 5661 5661 5660 5658 5654 5651 5648 5646 5648 5649 5647 5647 5647 5649 5651 5653 5653 5653 5653 5653 5653 5653 5653 5652 5651
5671 5671 5670 5669 5667 5665 5662 5660 5657 5657 5657 5656 5655 5655 5655 5654 5653 5651 5648 5643 5641 5641 5644 5642 5642 5641 5641 5644 5646 5647 5647 5647 5647 5647 5647 5647 5646 5644
5665 5664 5665 5664 5662 5660 5659 5657 5656 5654 5652 5650 5649 5648 5648 5648 5647 5647 5645 5642 5639 5639 5641 5639 5637 5635 5635 5635 5638 5641 5642 5642 5642 5642 5642 5642 5641 5640
5661 5660 5659 5659 5657 5656 5654 5653 5652 5649 5646 5644 5643 5642 5642 5641 5642 5642 5641 5640 5640 5640 5639 5638 5635 5632 5630 5629 5630 5634 5636 5637 5637 5637 5637 5637 5636 5636
5657 5656 5655 5653 5651 5650 5649 5648 5646 5643 5640 5638 5638 5638 5639 5638 5637 5635 5635 5635 5635 5635 5635 5634 5632 5630 5628 5626 5626 5628 5629 5632 5633 5633 5632 5632 5632 5631
5650 5649 5648 5646 5644 5644 5643 5642 5640 5639 5637 5635 5634 5634 5633 5632 5631 5630 5628 5628 5626 5627 5629 5629 5628 5626 5624 5624 5623 5623 5625 5626 5628 5628 5628 5627 5627 5627
5643 5641 5639 5637 5636 5636 5636 5635 5635 5634 5632 5631 5629 5627 5626 5625 5624 5624 5623 5622 5620 5619 5620 5621 5622 5622 5622 5621 5619 5619 5619 5621 5622 5623 5622 5621 5622 5623
5636 5634 5632 5631 5630 5630 5630 5630 5629 5629 5628 5626 5625 5623 5621 5620 5619 5618 5618 5616 5614 5613 5613 5614 5614 5613 5613 5615 5616 5615 5615 5615 5616 5617 5617 5615 5616 5617
5629 5628 5627 5626 5625 5625 5625 5625 5625 5625 5624 5622 5621 5619 5617 5616 5614 5613 5612 5610 5609 5608 5608 5608 5607 5607 5605 5605 5609 5612 5611 5611 5610 5610 5610 5610 5611 5612
5624 5624 5623 5622 5621 5621 5621 5621 5620 5620 5619 5618 5616 5614 5613 5611 5609 5607 5605 5604 5604 5603 5602 5603 5603 5603 5603 5603 5603 5605 5608 5607 5605 5604 5604 5604 5605 5606
5621 5620 5620 5619 5618 5618 5617 5617 5616 5615 5615 5613 5611 5609 5608 5606 5605 5603 5602 5601 5600 5599 5598 5599 5601 5602 5601 5599 5598 5599 5601 5603 5603 5601 5600 5598 5597 5597
5617 5616 5615 5615 5614 5614 5613 5612 5611 5610 5610 5608 5607 5605 5604 5603 5601 5599 5598 5597 5596 5595 5595 5596 5596 5596 5594 5593 5593 5593 5594 5596 5597 5597 5597 5596 5593 5592
5614 5613 5611 5609 5609 5608 5608 5608 5607 5606 5605 5605 5603 5602 5600 5599 5597 5595 5594 5593 5592 5591 5591 5590 5590 5589 5589 5589 5588 5588 5589 5589 5589 5589 5589 5591 5591 5592